NORTHERN NASSAU  -  Areal Flood Advisory Areal Flood Advisory     Special Weather Statement Special Weather Statement        NORTHERN QUEENS  -  Areal Flood Advisory Areal Flood Advisory        SOUTHERN NASSAU  -  Areal Flood Advisory Areal Flood Advisory     Special Weather Statement Special Weather Statement        SOUTHERN QUEENS  -  Areal Flood Advisory Areal Flood Advisory        NORTHEAST SUFFOLK  -  Special Weather Statement Special Weather Statement        NORTHWEST SUFFOLK  -  Special Weather Statement Special Weather Statement        SOUTHEAST SUFFOLK  -  Special Weather Statement Special Weather Statement        SOUTHWEST SUFFOLK  -  Special Weather Statement Special Weather Statement      

Active alerts

Northern Queens
  Details for Northern Queens Areal Flood Advisory
Southern Queens
  Details for Southern Queens Areal Flood Advisory
Northern Nassau
  Details for Northern Nassau Areal Flood Advisory  +1 additional alert
Southern Nassau
  Details for Southern Nassau Areal Flood Advisory  +1 additional alert
Northwest Suffolk
  Details for Northwest Suffolk Special Weather Statement
Southwest Suffolk
  Details for Southwest Suffolk Special Weather Statement
Northeast Suffolk
  Details for Northeast Suffolk Special Weather Statement
Southeast Suffolk
  Details for Southeast Suffolk Special Weather Statement


WXM80 ListenWXM80 Stop

You find our weather info also at:

UK Metoffice

WeatherCloud

Weather Underground

Northeastern Weather Network

AWEKAS

Citizen Weather Observer Program (CWOP)

HAMweather, WeatherForYou, PWS Weather


Weather Underground History page Text

Daily Summary for June 8, 2017 Units:  English    Metric   Both
« Previous Day
Next Day »
Daily Weekly Monthly Yearly Custom
  High: Low: Average:
Temperature: TemperatureF °F 50.0 °F 59.6 °F
Dew Point: DewpointF °F 46.1 °F 53.1 °F
Humidity: Humidity % 60 % 79 %
Wind Speed: WindSpeedMPH mph 0.0 mph 0.7 mph
Wind Gust: WindSpeedGustMPH mph - -
Wind:- - East
Pressure: PressureIn in 29.77 in -
Precipitation: 0.00 in    
Historical Graphs
 
 
Tabular Data for June 8, 2017
Time Temperature Dew Point Pressure Wind Wind Speed Wind Gust Humidity Rainfall Rate (Hourly)
TemperatureF °F DewpointF °F PressureIn in Calm     Humidity % HourlyPrecipIn in
00:04 55.9 °F 51.1 °F 29.99 in Calm     84 % 0.00 in
00:09 55.9 °F 51.1 °F 29.99 in Calm     84 % 0.00 in
00:14 55.9 °F 51.1 °F 29.99 in Calm     84 % 0.00 in
00:19 55.9 °F 51.1 °F 29.98 in Calm   1.0 mph 84 % 0.00 in
00:24 55.9 °F 51.5 °F 29.98 in WSW 0.3 mph 3.5 mph 85 % 0.00 in
00:29 55.9 °F 51.5 °F 29.98 in WSW 0.2 mph 1.2 mph 85 % 0.00 in
00:34 55.9 °F 51.5 °F 29.98 in Calm     85 % 0.00 in
00:39 55.9 °F 51.8 °F 29.98 in WSW 0.2 mph 1.2 mph 86 % 0.00 in
00:45 55.9 °F 51.8 °F 29.98 in WSW 0.1 mph 1.2 mph 86 % 0.00 in
00:50 55.9 °F 51.5 °F 29.98 in WSW 0.1 mph 1.2 mph 85 % 0.00 in
00:55 55.9 °F 51.5 °F 29.98 in Calm   1.2 mph 85 % 0.00 in
01:00 55.9 °F 51.8 °F 29.98 in Calm   1.2 mph 86 % 0.00 in
01:05 55.8 °F 51.7 °F 29.98 in WSW 0.1 mph 1.2 mph 86 % 0.00 in
01:10 55.8 °F 51.7 °F 29.97 in Calm   1.2 mph 86 % 0.00 in
01:15 55.7 °F 51.6 °F 29.97 in Calm     86 % 0.00 in
01:20 55.6 °F 51.5 °F 29.97 in Calm     86 % 0.00 in
01:25 55.5 °F 51.4 °F 29.97 in Calm     86 % 0.00 in
01:30 55.4 °F 51.3 °F 29.97 in WSW 0.1 mph 1.2 mph 86 % 0.00 in
01:35 55.3 °F 51.2 °F 29.98 in WSW 0.2 mph 1.2 mph 86 % 0.00 in
01:40 55.2 °F 51.1 °F 29.98 in Calm     86 % 0.00 in
01:45 55.1 °F 51.0 °F 29.97 in WSW 0.2 mph 1.2 mph 86 % 0.00 in
01:50 55.0 °F 50.9 °F 29.97 in WSW 0.5 mph 2.3 mph 86 % 0.00 in
01:55 54.9 °F 51.1 °F 29.97 in Calm     87 % 0.00 in
02:00 54.8 °F 51.0 °F 29.97 in Calm     87 % 0.00 in
02:05 54.7 °F 50.9 °F 29.97 in Calm   1.2 mph 87 % 0.00 in
02:10 54.6 °F 50.8 °F 29.97 in Calm     87 % 0.00 in
02:15 54.5 °F 50.7 °F 29.97 in Calm     87 % 0.00 in
02:20 54.4 °F 50.6 °F 29.97 in Calm     87 % 0.00 in
02:25 54.3 °F 50.8 °F 29.97 in Calm     88 % 0.00 in
02:30 54.2 °F 50.7 °F 29.97 in Calm     88 % 0.00 in
02:35 54.1 °F 50.6 °F 29.97 in Calm     88 % 0.00 in
02:40 53.9 °F 50.4 °F 29.97 in Calm     88 % 0.00 in
02:45 53.7 °F 50.2 °F 29.97 in Calm     88 % 0.00 in
02:50 53.6 °F 50.4 °F 29.98 in Calm     89 % 0.00 in
02:55 53.4 °F 50.2 °F 29.97 in Calm     89 % 0.00 in
03:00 53.3 °F 50.1 °F 29.98 in Calm     89 % 0.00 in
03:05 53.1 °F 49.9 °F 29.98 in Calm     89 % 0.00 in
03:11 53.0 °F 49.8 °F 29.98 in Calm     89 % 0.00 in
03:16 52.8 °F 49.9 °F 29.97 in Calm     90 % 0.00 in
03:21 52.7 °F 49.8 °F 29.98 in Calm     90 % 0.00 in
03:26 52.6 °F 49.7 °F 29.98 in Calm     90 % 0.00 in
03:31 52.4 °F 49.8 °F 29.97 in Calm     91 % 0.00 in
03:36 52.3 °F 49.8 °F 29.97 in Calm     91 % 0.00 in
03:41 52.2 °F 49.7 °F 29.97 in Calm     91 % 0.00 in
03:46 52.0 °F 49.2 °F 29.97 in Calm     90 % 0.00 in
03:51 51.9 °F 49.4 °F 29.97 in Calm     91 % 0.00 in
03:56 51.8 °F 49.3 °F 29.97 in Calm     91 % 0.00 in
04:01 51.7 °F 49.2 °F 29.97 in Calm     91 % 0.00 in
04:06 51.7 °F 49.2 °F 29.97 in Calm     91 % 0.00 in
04:11 51.5 °F 49.0 °F 29.97 in Calm     91 % 0.00 in
04:16 51.5 °F 49.0 °F 29.96 in WSW 0.5 mph 1.2 mph 91 % 0.00 in
04:21 51.4 °F 48.9 °F 29.96 in Calm     91 % 0.00 in
04:26 51.2 °F 48.7 °F 29.96 in Calm     91 % 0.00 in
04:31 51.2 °F 48.7 °F 29.96 in Calm     91 % 0.00 in
04:36 51.1 °F 48.6 °F 29.96 in Calm     91 % 0.00 in
04:41 51.0 °F 48.5 °F 29.96 in Calm     91 % 0.00 in
04:46 51.0 °F 48.8 °F 29.96 in Calm     92 % 0.00 in
04:51 50.9 °F 48.7 °F 29.97 in Calm     92 % 0.00 in
04:56 50.9 °F 48.7 °F 29.97 in Calm     92 % 0.00 in
05:01 50.8 °F 48.6 °F 29.97 in Calm     92 % 0.00 in
05:06 50.7 °F 48.5 °F 29.97 in Calm     92 % 0.00 in
05:11 50.6 °F 48.4 °F 29.97 in Calm     92 % 0.00 in
05:16 50.5 °F 48.3 °F 29.97 in Calm     92 % 0.00 in
05:21 50.4 °F 48.2 °F 29.97 in Calm     92 % 0.00 in
05:26 50.3 °F 48.1 °F 29.97 in Calm     92 % 0.00 in
05:31 50.2 °F 48.0 °F 29.97 in Calm     92 % 0.00 in
05:36 50.1 °F 47.9 °F 29.97 in Calm     92 % 0.00 in
05:41 50.1 °F 47.9 °F 29.97 in Calm     92 % 0.00 in
05:46 50.0 °F 47.8 °F 29.97 in Calm     92 % 0.00 in
05:51 50.0 °F 48.1 °F 29.98 in Calm     93 % 0.00 in
05:56 50.0 °F 48.1 °F 29.98 in Calm     93 % 0.00 in
06:01 50.1 °F 48.2 °F 29.98 in Calm     93 % 0.00 in
06:06 50.1 °F 48.2 °F 29.98 in Calm     93 % 0.00 in
06:09 50.2 °F 48.3 °F 29.98 in Calm     93 % 0.00 in
06:14 50.3 °F 48.6 °F 29.98 in Calm     94 % 0.00 in
06:19 50.5 °F 48.8 °F 29.98 in Calm     94 % 0.00 in
06:29 51.0 °F 49.6 °F 29.99 in Calm     95 % 0.00 in
06:34 51.2 °F 49.8 °F 29.99 in Calm     95 % 0.00 in
06:39 51.4 °F 50.0 °F 29.99 in Calm     95 % 0.00 in
06:44 51.8 °F 50.7 °F 29.99 in Calm     96 % 0.00 in
06:49 52.3 °F 51.2 °F 29.99 in Calm     96 % 0.00 in
06:54 53.2 °F 52.1 °F 29.99 in Calm     96 % 0.00 in
06:59 54.6 °F 53.8 °F 29.99 in Calm     97 % 0.00 in
07:04 55.3 °F 54.5 °F 29.99 in Calm     97 % 0.00 in
07:09 55.8 °F 55.0 °F 29.99 in Calm     97 % 0.00 in
07:14 56.6 °F 55.8 °F 29.99 in Calm     97 % 0.00 in
07:19 57.2 °F 56.4 °F 30.00 in SSE 0.4 mph 2.0 mph 97 % 0.00 in
07:24 57.6 °F 56.8 °F 30.00 in Calm     97 % 0.00 in
07:25 57.7 °F 56.9 °F 30.00 in Calm     97 % 0.00 in
07:30 58.1 °F 57.3 °F 30.00 in Calm   1.0 mph 97 % 0.00 in
07:36 58.4 °F 57.5 °F 30.00 in Calm   1.0 mph 97 % 0.00 in
07:41 58.6 °F 57.5 °F 30.00 in Calm   1.0 mph 96 % 0.00 in
07:46 59.0 °F 57.9 °F 30.00 in Calm   2.0 mph 96 % 0.00 in
07:51 59.4 °F 58.3 °F 30.00 in Calm   1.0 mph 96 % 0.00 in
07:56 59.5 °F 58.1 °F 30.00 in Calm   2.0 mph 95 % 0.00 in
08:01 59.8 °F 58.1 °F 30.00 in East 0.2 mph 1.2 mph 94 % 0.00 in
08:06 60.1 °F 58.1 °F 30.00 in Calm   1.0 mph 93 % 0.00 in
08:11 60.4 °F 58.1 °F 30.00 in Calm   2.0 mph 92 % 0.00 in
08:16 60.7 °F 58.4 °F 30.00 in Calm     92 % 0.00 in
08:21 61.1 °F 58.4 °F 30.00 in Calm   2.0 mph 91 % 0.00 in
08:26 61.4 °F 58.4 °F 30.00 in NNE 1.0 mph 4.0 mph 90 % 0.00 in
08:31 61.6 °F 58.0 °F 30.00 in NE 2.0 mph 4.0 mph 88 % 0.00 in
08:36 61.7 °F 58.1 °F 30.00 in NE 1.0 mph 4.0 mph 88 % 0.00 in
08:41 61.9 °F 58.0 °F 30.00 in NE 1.0 mph 3.0 mph 87 % 0.00 in
08:46 62.0 °F 58.1 °F 30.00 in NE 2.0 mph 7.0 mph 87 % 0.00 in
08:51 62.1 °F 58.2 °F 30.00 in NE 1.0 mph 5.0 mph 87 % 0.00 in
08:56 62.1 °F 58.2 °F 30.00 in NE 1.1 mph 3.5 mph 87 % 0.00 in
09:01 62.1 °F 57.9 °F 30.00 in NE 1.0 mph 5.8 mph 86 % 0.00 in
09:06 62.3 °F 58.4 °F 30.00 in NE 3.0 mph 6.0 mph 87 % 0.00 in
09:11 62.4 °F 58.4 °F 29.99 in NE 2.0 mph 5.0 mph 87 % 0.00 in
09:16 62.3 °F 57.8 °F 29.99 in ENE 3.0 mph 7.0 mph 85 % 0.00 in
09:21 62.3 °F 58.1 °F 29.99 in ENE 2.0 mph 7.0 mph 86 % 0.00 in
09:26 62.4 °F 57.8 °F 29.99 in NE 1.0 mph 3.0 mph 85 % 0.00 in
09:31 62.5 °F 58.2 °F 29.99 in ENE 1.0 mph 4.0 mph 86 % 0.00 in
09:36 62.7 °F 58.5 °F 29.99 in ENE 1.0 mph 4.0 mph 86 % 0.00 in
09:41 63.0 °F 58.4 °F 30.00 in ENE 3.0 mph 6.0 mph 85 % 0.00 in
09:46 63.1 °F 58.2 °F 30.00 in ENE 3.0 mph 6.0 mph 84 % 0.00 in
09:51 63.4 °F 58.2 °F 30.00 in ENE 1.0 mph 4.0 mph 83 % 0.00 in
09:56 64.0 °F 59.0 °F 29.99 in ENE 2.0 mph 8.0 mph 84 % 0.00 in
10:01 65.0 °F 59.0 °F 29.99 in ENE 3.9 mph 6.9 mph 81 % 0.00 in
10:06 65.6 °F 59.6 °F 29.99 in NNE 2.4 mph 3.5 mph 81 % 0.00 in
10:11 66.3 °F 59.2 °F 29.98 in ENE 2.9 mph 8.1 mph 78 % 0.00 in
10:16 66.7 °F 59.6 °F 29.99 in ENE 2.7 mph 6.9 mph 78 % 0.00 in
10:21 67.2 °F 59.4 °F 29.99 in NE 2.3 mph 6.0 mph 76 % 0.00 in
10:26 67.7 °F 60.2 °F 29.99 in NE 1.6 mph 3.5 mph 77 % 0.00 in
10:31 68.3 °F 60.1 °F 29.99 in ENE 4.2 mph 6.9 mph 75 % 0.00 in
10:36 68.9 °F 60.6 °F 29.99 in ENE 3.7 mph 6.9 mph 75 % 0.00 in
10:41 68.9 °F 60.3 °F 29.99 in ENE 4.6 mph 7.0 mph 74 % 0.00 in
10:46 68.7 °F 59.7 °F 29.99 in ENE 4.3 mph 7.0 mph 73 % 0.00 in
10:51 68.5 °F 60.6 °F 29.99 in NE 1.0 mph 3.0 mph 76 % 0.00 in
10:56 69.0 °F 60.0 °F 29.99 in ENE 5.2 mph 6.9 mph 73 % 0.00 in
11:01 68.9 °F 60.6 °F 29.98 in ENE 2.5 mph 4.0 mph 75 % 0.00 in
11:06 69.6 °F 60.9 °F 29.99 in ENE 2.6 mph 5.0 mph 74 % 0.00 in
11:11 69.5 °F 60.1 °F 29.99 in ENE 4.6 mph 6.9 mph 72 % 0.00 in
11:16 69.1 °F 59.7 °F 29.99 in ENE 3.8 mph 8.1 mph 72 % 0.00 in
11:21 69.4 °F 61.1 °F 29.99 in NE 3.8 mph 8.1 mph 75 % 0.00 in
11:26 69.4 °F 60.4 °F 29.99 in NE 3.3 mph 4.6 mph 73 % 0.00 in
11:31 69.2 °F 60.6 °F 29.99 in ENE 2.6 mph 4.0 mph 74 % 0.00 in
11:36 69.3 °F 59.9 °F 29.99 in ENE 2.9 mph 7.0 mph 72 % 0.00 in
11:41 69.3 °F 60.3 °F 29.99 in ENE 2.1 mph 4.6 mph 73 % 0.00 in
11:46 69.6 °F 60.9 °F 29.99 in NE 3.5 mph 5.0 mph 74 % 0.00 in
11:56 69.3 °F 59.5 °F 29.99 in ENE 4.5 mph 4.6 mph 71 % 0.00 in
12:01 68.3 °F 58.1 °F 29.98 in ENE 3.0 mph 6.9 mph 70 % 0.00 in
12:05 67.9 °F 59.3 °F 29.98 in NE 1.0 mph 2.3 mph 74 % 0.00 in
12:10 67.5 °F 59.3 °F 29.98 in ENE 1.5 mph 3.0 mph 75 % 0.00 in
12:15 67.1 °F 58.9 °F 29.99 in ENE 1.6 mph 5.0 mph 75 % 0.00 in
12:20 67.0 °F 59.9 °F 29.99 in ENE 3.6 mph 6.9 mph 78 % 0.00 in
12:25 67.1 °F 59.3 °F 29.98 in ENE 0.9 mph 2.3 mph 76 % 0.00 in
12:30 67.0 °F 59.2 °F 29.97 in ENE 1.5 mph 2.3 mph 76 % 0.00 in
12:35 66.6 °F 58.8 °F 29.98 in NE 0.7 mph 4.0 mph 76 % 0.00 in
12:40 66.6 °F 59.2 °F 29.98 in ENE 0.6 mph 3.5 mph 77 % 0.00 in
12:45 66.7 °F 58.9 °F 29.98 in ENE 1.7 mph 3.5 mph 76 % 0.00 in
12:50 66.5 °F 58.7 °F 29.98 in ENE 0.5 mph 2.3 mph 76 % 0.00 in
12:55 66.7 °F 59.3 °F 29.97 in NE 0.6 mph 2.3 mph 77 % 0.00 in
13:00 67.1 °F 58.9 °F 29.98 in ENE 0.4 mph 2.3 mph 75 % 0.00 in
13:05 67.6 °F 60.1 °F 29.98 in NE 2.2 mph 4.6 mph 77 % 0.00 in
13:11 67.9 °F 59.7 °F 29.97 in ENE 3.0 mph 7.0 mph 75 % 0.00 in
13:15 68.1 °F 60.2 °F 29.97 in ENE 1.0 mph 5.0 mph 76 % 0.00 in
13:20 68.3 °F 60.5 °F 29.97 in ENE 2.0 mph 5.0 mph 76 % 0.00 in
13:25 68.4 °F 59.4 °F 29.97 in ENE 3.0 mph 5.0 mph 73 % 0.00 in
13:31 67.9 °F 58.6 °F 29.97 in ENE 3.0 mph 7.0 mph 72 % 0.00 in
13:35 67.4 °F 59.2 °F 29.96 in ENE 2.0 mph 7.0 mph 75 % 0.00 in
13:40 67.2 °F 59.4 °F 29.96 in ENE 2.0 mph 3.0 mph 76 % 0.00 in
13:46 66.8 °F 59.0 °F 29.96 in NE 2.0 mph 8.0 mph 76 % 0.00 in
13:50 66.4 °F 58.9 °F 29.96 in NE 2.0 mph 5.0 mph 77 % 0.00 in
13:55 65.9 °F 58.8 °F 29.95 in ENE 3.0 mph 7.0 mph 78 % 0.00 in
14:00 65.6 °F 59.3 °F 29.95 in NE 2.6 mph 3.5 mph 80 % 0.00 in
14:05 65.5 °F 59.5 °F 29.95 in ENE 1.2 mph 2.3 mph 81 % 0.00 in
14:10 65.6 °F 59.6 °F 29.95 in NE 1.3 mph 4.6 mph 81 % 0.00 in
14:15 65.7 °F 59.0 °F 29.95 in NE 1.8 mph 3.5 mph 79 % 0.00 in
14:20 65.7 °F 59.4 °F 29.95 in NE 1.0 mph 3.0 mph 80 % 0.00 in
14:25 65.6 °F 59.3 °F 29.95 in NE 3.0 mph 7.0 mph 80 % 0.00 in
14:30 65.5 °F 59.2 °F 29.94 in ENE 1.0 mph 2.0 mph 80 % 0.00 in
14:35 65.5 °F 59.1 °F 29.94 in ENE 1.0 mph 4.0 mph 80 % 0.00 in
14:40 65.4 °F 59.4 °F 29.94 in ENE 1.0 mph 3.0 mph 81 % 0.00 in
14:46 65.2 °F 59.3 °F 29.94 in ENE 1.0 mph 5.0 mph 81 % 0.00 in
14:51 65.1 °F 59.2 °F 29.94 in Calm   2.0 mph 81 % 0.00 in
14:56 65.2 °F 59.6 °F 29.94 in Calm   1.0 mph 82 % 0.00 in
15:01 65.2 °F 58.9 °F 29.94 in Calm   1.2 mph 80 % 0.00 in
15:06 65.2 °F 58.9 °F 29.93 in ENE 0.7 mph 3.5 mph 80 % 0.00 in
15:11 65.0 °F 58.3 °F 29.93 in NE 0.5 mph 2.3 mph 79 % 0.00 in
15:16 64.9 °F 58.2 °F 29.93 in NE 0.2 mph 3.5 mph 79 % 0.00 in
15:21 64.9 °F 58.6 °F 29.93 in NE 0.1 mph 1.2 mph 80 % 0.00 in
15:26 64.9 °F 58.2 °F 29.93 in NE 0.7 mph 1.2 mph 79 % 0.00 in
15:31 64.9 °F 58.2 °F 29.93 in NE 0.5 mph 1.2 mph 79 % 0.00 in
15:36 64.9 °F 58.2 °F 29.93 in Calm     79 % 0.00 in
15:41 65.0 °F 57.6 °F 29.92 in Calm     77 % 0.00 in
15:46 65.1 °F 57.7 °F 29.92 in Calm     77 % 0.00 in
15:51 65.1 °F 55.8 °F 29.92 in SSE 1.1 mph 4.0 mph 72 % 0.00 in
15:56 65.1 °F 52.6 °F 29.92 in SSE 1.8 mph 4.0 mph 64 % 0.00 in
16:01 65.2 °F 53.1 °F 29.92 in SSE 2.1 mph 4.6 mph 65 % 0.00 in
16:06 65.3 °F 51.5 °F 29.92 in SSE 1.0 mph 3.5 mph 61 % 0.00 in
16:11 65.3 °F 51.9 °F 29.92 in Calm   3.5 mph 62 % 0.00 in
16:16 65.3 °F 51.1 °F 29.92 in SE 5.4 mph 8.1 mph 60 % 0.00 in
16:20 65.2 °F 51.0 °F 29.92 in SE 1.2 mph 3.5 mph 60 % 0.00 in
16:25 65.1 °F 50.9 °F 29.92 in SSE 2.0 mph 3.5 mph 60 % 0.00 in
16:30 65.0 °F 51.2 °F 29.92 in SSE 3.6 mph 6.9 mph 61 % 0.00 in
16:35 64.8 °F 51.5 °F 29.92 in SE 1.4 mph 4.6 mph 62 % 0.00 in
16:40 64.7 °F 51.4 °F 29.92 in SE 0.9 mph 3.5 mph 62 % 0.00 in
16:45 64.7 °F 52.2 °F 29.91 in SE 0.1 mph 1.2 mph 64 % 0.00 in
16:50 64.7 °F 52.7 °F 29.91 in SE 0.1 mph 1.2 mph 65 % 0.00 in
16:53 64.6 °F 51.7 °F 29.91 in SE 1.0 mph 2.3 mph 63 % 0.00 in
16:58 64.5 °F 51.6 °F 29.90 in Calm   1.2 mph 63 % 0.00 in
17:03 64.3 °F 51.4 °F 29.90 in Calm   2.3 mph 63 % 0.00 in
17:08 64.3 °F 52.3 °F 29.90 in Calm   1.2 mph 65 % 0.00 in
17:13 64.1 °F 50.8 °F 29.90 in SE 0.2 mph 1.2 mph 62 % 0.00 in
17:18 64.0 °F 50.7 °F 29.91 in SE 0.1 mph 1.2 mph 62 % 0.00 in
17:21 64.0 °F 51.6 °F 29.91 in Calm   1.2 mph 64 % 0.00 in
17:26 63.9 °F 50.2 °F 29.90 in ESE 1.9 mph 4.6 mph 61 % 0.00 in
17:31 63.7 °F 50.0 °F 29.90 in SSW 0.2 mph 1.2 mph 61 % 0.00 in
17:36 63.6 °F 50.3 °F 29.89 in Calm     62 % 0.00 in
17:41 63.6 °F 50.3 °F 29.89 in Calm   2.3 mph 62 % 0.00 in
17:46 63.5 °F 50.7 °F 29.88 in Calm   2.3 mph 63 % 0.00 in
17:51 63.3 °F 51.3 °F 29.88 in Calm     65 % 0.00 in
17:56 63.1 °F 50.7 °F 29.88 in Calm     64 % 0.00 in
18:01 63.0 °F 50.2 °F 29.87 in SSW 0.1 mph 1.2 mph 63 % 0.00 in
18:06 62.9 °F 50.5 °F 29.87 in Calm     64 % 0.00 in
18:11 62.7 °F 51.2 °F 29.87 in Calm     66 % 0.00 in
18:16 62.5 °F 51.0 °F 29.87 in Calm     66 % 0.00 in
18:21 62.3 °F 50.4 °F 29.87 in Calm   1.2 mph 65 % 0.00 in
18:26 62.2 °F 51.1 °F 29.87 in Calm   1.2 mph 67 % 0.00 in
18:36 61.9 °F 50.4 °F 29.87 in Calm   1.0 mph 66 % 0.00 in
18:41 61.7 °F 49.4 °F 29.86 in Calm   1.2 mph 64 % 0.00 in
18:46 61.6 °F 48.9 °F 29.86 in SSW 0.2 mph 1.2 mph 63 % 0.00 in
18:51 61.4 °F 49.5 °F 29.86 in SSW 0.2 mph 1.2 mph 65 % 0.00 in
18:56 61.3 °F 48.6 °F 29.86 in Calm     63 % 0.00 in
19:01 61.3 °F 48.2 °F 29.85 in Calm     62 % 0.00 in
19:06 61.2 °F 48.9 °F 29.85 in Calm     64 % 0.00 in
19:11 61.0 °F 47.9 °F 29.85 in SSW 0.1 mph 1.2 mph 62 % 0.00 in
19:16 60.9 °F 48.6 °F 29.85 in SSW 0.1 mph 1.0 mph 64 % 0.00 in
19:21 60.7 °F 48.9 °F 29.85 in SSW 0.4 mph 1.2 mph 65 % 0.00 in
19:27 60.5 °F 48.7 °F 29.85 in SSW 0.2 mph 1.2 mph 65 % 0.00 in
19:32 60.3 °F 48.9 °F 29.84 in SSW 0.3 mph 1.2 mph 66 % 0.00 in
19:37 60.2 °F 49.2 °F 29.84 in SSW 0.6 mph 2.3 mph 67 % 0.00 in
19:42 60.0 °F 49.0 °F 29.83 in SSW 0.1 mph 1.2 mph 67 % 0.00 in
19:52 59.9 °F 49.3 °F 29.83 in SSW 0.1 mph 1.2 mph 68 % 0.00 in
19:57 59.8 °F 49.2 °F 29.82 in SSW 0.4 mph 1.2 mph 68 % 0.00 in
20:02 59.7 °F 49.1 °F 29.82 in SSW 0.8 mph 2.3 mph 68 % 0.00 in
20:07 59.6 °F 48.6 °F 29.82 in SSW 0.7 mph 2.3 mph 67 % 0.00 in
20:12 59.5 °F 47.7 °F 29.82 in SSW 0.2 mph   65 % 0.00 in
20:17 59.5 °F 48.1 °F 29.82 in Calm     66 % 0.00 in
20:22 59.4 °F 48.0 °F 29.82 in Calm     66 % 0.00 in
20:27 59.3 °F 47.1 °F 29.82 in Calm     64 % 0.00 in
20:32 59.3 °F 47.5 °F 29.81 in Calm     65 % 0.00 in
20:37 59.2 °F 47.4 °F 29.81 in Calm     65 % 0.00 in
20:42 59.0 °F 47.7 °F 29.81 in Calm   1.2 mph 66 % 0.00 in
20:47 58.8 °F 47.5 °F 29.81 in Calm     66 % 0.00 in
20:52 58.7 °F 47.4 °F 29.81 in Calm     66 % 0.00 in
20:57 58.6 °F 47.3 °F 29.81 in NE 0.1 mph 1.2 mph 66 % 0.00 in
21:02 58.5 °F 47.2 °F 29.81 in Calm     66 % 0.00 in
21:07 58.3 °F 47.0 °F 29.81 in Calm     66 % 0.00 in
21:12 58.1 °F 46.4 °F 29.81 in Calm     65 % 0.00 in
21:17 57.8 °F 46.1 °F 29.80 in Calm     65 % 0.00 in
21:22 57.6 °F 46.3 °F 29.80 in Calm     66 % 0.00 in
21:27 57.4 °F 46.1 °F 29.80 in Calm     66 % 0.00 in
21:32 57.2 °F 46.3 °F 29.80 in Calm     67 % 0.00 in
21:37 57.0 °F 46.1 °F 29.80 in Calm     67 % 0.00 in
21:42 56.7 °F 46.3 °F 29.80 in Calm     68 % 0.00 in
21:47 56.4 °F 47.1 °F 29.80 in Calm     71 % 0.00 in
21:52 56.3 °F 47.4 °F 29.80 in Calm     72 % 0.00 in
21:57 56.2 °F 47.7 °F 29.80 in Calm     73 % 0.00 in
22:02 56.1 °F 47.9 °F 29.80 in Calm     74 % 0.00 in
22:07 56.0 °F 47.8 °F 29.80 in Calm     74 % 0.00 in
22:12 56.0 °F 48.2 °F 29.80 in Calm     75 % 0.00 in
22:17 55.9 °F 48.4 °F 29.80 in Calm     76 % 0.00 in
22:22 55.9 °F 48.8 °F 29.80 in NE 0.1 mph 1.2 mph 77 % 0.00 in
22:27 55.9 °F 50.2 °F 29.79 in Calm   2.3 mph 81 % 0.00 in
22:33 56.0 °F 50.6 °F 29.79 in Calm     82 % 0.00 in
22:38 56.0 °F 50.9 °F 29.79 in ENE 0.4 mph 2.3 mph 83 % 0.00 in
22:43 56.2 °F 51.7 °F 29.79 in ENE 0.3 mph 1.2 mph 85 % 0.00 in
22:48 56.4 °F 52.3 °F 29.79 in Calm     86 % 0.00 in
22:53 56.4 °F 52.3 °F 29.79 in ENE 1.0 mph 2.3 mph 86 % 0.00 in
22:58 56.6 °F 52.5 °F 29.79 in ENE 0.7 mph 3.5 mph 86 % 0.00 in
23:03 56.6 °F 52.5 °F 29.79 in ENE 0.5 mph 2.3 mph 86 % 0.00 in
23:08 56.6 °F 52.5 °F 29.79 in ENE 0.1 mph 1.2 mph 86 % 0.00 in
23:13 56.7 °F 52.6 °F 29.79 in NNE 0.9 mph 3.0 mph 86 % 0.00 in
23:18 56.8 °F 52.7 °F 29.79 in NNE 0.3 mph 1.2 mph 86 % 0.00 in
23:23 56.8 °F 52.7 °F 29.79 in Calm   2.3 mph 86 % 0.00 in
23:28 56.9 °F 52.8 °F 29.78 in North 1.0 mph 3.5 mph 86 % 0.00 in
23:33 56.9 °F 52.8 °F 29.79 in North 1.1 mph 3.5 mph 86 % 0.00 in
23:43 56.9 °F 53.1 °F 29.78 in North 0.6 mph 2.0 mph 87 % 0.00 in
23:48 57.0 °F 53.2 °F 29.78 in Calm   1.2 mph 87 % 0.00 in
23:53 57.0 °F 53.2 °F 29.78 in North 0.4 mph 1.2 mph 87 % 0.00 in
23:58 57.0 °F 53.5 °F 29.77 in NE 3.5 mph 4.6 mph 88 % 0.00 in
Crab Meadow Weather
Compliments of Weather Underground - 3 mb

Script developed by  Jim McMurry - jmcmurry@mwt.net Adapted for the template by  Wim van der Kuil - Leuven-Template.eu

Astronomy: Neptune has at least 11 moons.